TimeCST,TemperatureF,Dew PointF,Humidity,Sea Level PressureIn,VisibilityMPH,Wind Direction,Wind SpeedMPH,Gust SpeedMPH,PrecipitationIn,Events,Conditions,WindDirDegrees,DateUTC
12:22 AM,35.6,33.8,93,30.33,1.8,Calm,Calm,-,N/A,,Clear,0,2013-12-16 06:22:00
12:29 AM,35.6,33.8,93,30.33,1.0,Calm,Calm,-,N/A,,Clear,0,2013-12-16 06:29:00
12:32 AM,35.6,33.8,93,30.33,2.0,Calm,Calm,-,N/A,,Clear,0,2013-12-16 06:32:00
12:40 AM,35.6,32.0,87,30.33,6.0,Calm,Calm,-,N/A,,Clear,0,2013-12-16 06:40:00
12:53 AM,36.0,33.1,89,30.32,7.0,Calm,Calm,-,N/A,,Clear,0,2013-12-16 06:53:00
1:47 AM,33.8,32.0,93,30.32,1.8,Calm,Calm,-,N/A,,Clear,0,2013-12-16 07:47:00
1:53 AM,34.0,32.0,92,30.32,1.0,Calm,Calm,-,N/A,,Clear,0,2013-12-16 07:53:00
1:57 AM,33.8,32.0,93,30.32,2.0,Calm,Calm,-,N/A,,Clear,0,2013-12-16 07:57:00
2:04 AM,35.6,33.8,93,30.32,6.0,Calm,Calm,-,N/A,,Clear,0,2013-12-16 08:04:00
2:53 AM,35.1,33.1,92,30.31,8.0,North,3.5,-,N/A,,Clear,10,2013-12-16 08:53:00
3:53 AM,32.0,30.9,96,30.33,2.5,Calm,Calm,-,N/A,,Clear,0,2013-12-16 09:53:00
4:06 AM,32.0,30.2,93,30.32,10.0,Calm,Calm,-,N/A,,Clear,0,2013-12-16 10:06:00
4:53 AM,33.1,30.9,92,30.32,9.0,Calm,Calm,-,N/A,,Clear,0,2013-12-16 10:53:00
5:53 AM,33.1,30.0,89,30.32,9.0,Calm,Calm,-,N/A,,Clear,0,2013-12-16 11:53:00
6:53 AM,30.9,30.0,96,30.33,8.0,Calm,Calm,-,N/A,,Clear,0,2013-12-16 12:53:00
7:53 AM,36.0,33.1,89,30.34,8.0,North,3.5,-,N/A,,Clear,10,2013-12-16 13:53:00
8:53 AM,45.0,42.1,90,30.35,7.0,Calm,Calm,-,N/A,,Clear,0,2013-12-16 14:53:00
9:53 AM,52.0,41.0,66,30.36,10.0,Variable,3.5,-,N/A,,Clear,0,2013-12-16 15:53:00
10:53 AM,55.9,36.0,47,30.34,10.0,Variable,5.8,-,N/A,,Clear,0,2013-12-16 16:53:00
11:53 AM,57.9,34.0,41,30.32,10.0,Variable,3.5,-,N/A,,Clear,0,2013-12-16 17:53:00
12:53 PM,60.1,34.0,38,30.29,5.0,Calm,Calm,-,N/A,,Haze,0,2013-12-16 18:53:00
1:53 PM,61.0,32.0,34,30.26,5.0,Variable,3.5,-,N/A,,Haze,0,2013-12-16 19:53:00
2:53 PM,62.1,34.0,35,30.25,10.0,South,8.1,-,N/A,,Clear,190,2013-12-16 20:53:00
3:53 PM,60.1,39.0,46,30.25,10.0,South,6.9,-,N/A,,Clear,180,2013-12-16 21:53:00
4:53 PM,54.0,41.0,62,30.26,10.0,South,6.9,-,N/A,,Clear,170,2013-12-16 22:53:00
5:53 PM,48.0,39.9,74,30.27,10.0,South,4.6,-,N/A,,Clear,170,2013-12-16 23:53:00
6:53 PM,46.0,39.9,79,30.27,10.0,South,4.6,-,N/A,,Clear,170,2013-12-17 00:53:00
7:53 PM,43.0,39.0,86,30.30,10.0,Calm,Calm,-,N/A,,Clear,0,2013-12-17 01:53:00
8:53 PM,44.1,39.0,82,30.30,10.0,Calm,Calm,-,N/A,,Clear,0,2013-12-17 02:53:00
9:53 PM,44.1,39.9,85,30.30,10.0,SE,3.5,-,N/A,,Clear,130,2013-12-17 03:53:00
10:53 PM,42.1,39.0,89,30.30,7.0,Calm,Calm,-,N/A,,Clear,0,2013-12-17 04:53:00
11:53 PM,39.9,39.0,97,30.29,9.0,Calm,Calm,-,N/A,,Clear,0,2013-12-17 05:53:00